EW3721 Hamden CT US current weather conditions

sailwx.info

Wind from 221 at 3 knots gusting 10

Air temperature 8.3° C
Dewpoint -0.4° C

Last reported at 2020-Jan-26 19:01 UTC.
Time now 2020-Jan-26 20:15 UTC

Location: N 41°22' W 072°57'.
View on Google Maps.

See reports from other nearby stations

  
Tides and Currents Weather Stations Pressure Air Temp Water Temp Dewpoint Dewpoint Depression Visibility Wind Speed Wind Dir Waves Ship Positions
date/time (UTC)wind fromknots sea level pressurealtimeterstation pressurevisibilityair tempwater tempwave heightnotes
2020-Jan-26 19:01 221 3 gusting 10 8.3
2020-Jan-26 18:51 198 3 gusting 8 8.3
2020-Jan-26 18:41 240 3 gusting 6 8.3
2020-Jan-26 18:31 198 1 gusting 7 8.3
2020-Jan-26 18:21 237 3 gusting 12 8.3
2020-Jan-26 18:11 197 5 gusting 12 8.3
2020-Jan-26 18:01 164 2 gusting 10 8.3
2020-Jan-26 17:51 143 6 gusting 11 8.3
2020-Jan-26 17:41 227 2 gusting 11 8.9
2020-Jan-26 17:31 234 4 gusting 13 8.9
2020-Jan-26 17:21 247 5 gusting 10 8.3
2020-Jan-26 17:11 236 2 gusting 12 8.3
2020-Jan-26 17:01 178 1 gusting 6 8.3
2020-Jan-26 16:51 242 1 gusting 6 8.3
2020-Jan-26 16:41 226 1 gusting 8 7.8
2020-Jan-26 16:31 208 4 gusting 7 7.2
2020-Jan-26 16:21 249 4 gusting 10 7.2
2020-Jan-26 16:11 240 2 gusting 8 7.8
2020-Jan-26 16:01 207 2 gusting 10 7.8
2020-Jan-26 15:51 250 3 gusting 11 7.8
2020-Jan-26 15:41 246 2 gusting 6 7.8
2020-Jan-26 15:31 182 1 gusting 6 7.2
2020-Jan-26 15:21 099 1 gusting 7 7.2
2020-Jan-26 15:11 209 1 gusting 6 6.7
2020-Jan-26 15:01 251 1 gusting 6 6.7
2020-Jan-26 14:51 208 3 gusting 6 6.1
2020-Jan-26 14:41 215 1 gusting 2 5.6
2020-Jan-26 14:31 215 5.0
2020-Jan-26 14:21 196 0 gusting 5 4.4
2020-Jan-26 14:11 196 1 gusting 2 4.4
2020-Jan-26 14:01 211 0 gusting 1 3.3
2020-Jan-26 13:51 206 0 gusting 4 2.8
2020-Jan-26 13:41 230 1.7
2020-Jan-26 13:31 239 1.1
2020-Jan-26 13:21 113 1.1
2020-Jan-26 13:11 101 1.1
2020-Jan-26 13:01 103 1.1
2020-Jan-26 12:51 103 1.1
2020-Jan-26 12:41 103 1.1
2020-Jan-26 12:31 103 1.1
2020-Jan-26 12:21 103 1.7
2020-Jan-26 12:11 103 1.7
2020-Jan-26 12:01 103 1.7
2020-Jan-26 11:51 103 2.2
2020-Jan-26 11:41 103 2.2
2020-Jan-26 11:31 103 2.8
2020-Jan-26 11:21 103 2.8
2020-Jan-26 11:11 103 3.3
2020-Jan-26 11:01 103 3.3
2020-Jan-26 10:51 103 3.3
2020-Jan-26 10:41 103 3.9
2020-Jan-26 10:31 103 3.9
2020-Jan-26 10:21 103 4.4
2020-Jan-26 10:11 103 4.4
2020-Jan-26 10:01 126 0 gusting 2 4.4
2020-Jan-26 09:51 210 4.4
2020-Jan-26 09:41 209 0 gusting 2 4.4
2020-Jan-26 09:31 212 0 gusting 2 4.4
2020-Jan-26 09:21 221 4.4
2020-Jan-26 09:11 239 0 gusting 2 4.4
2020-Jan-26 09:01 202 4.4
2020-Jan-26 08:51 227 5.0
2020-Jan-26 08:41 247 0 gusting 2 5.0
2020-Jan-26 08:31 221 5.0
2020-Jan-26 08:21 238 1 gusting 2 5.0
2020-Jan-26 08:11 250 1 gusting 5 5.0
2020-Jan-26 08:01 230 1 gusting 8 5.0
2020-Jan-26 07:51 159 5.0
2020-Jan-26 07:41 104 1 gusting 4 5.0
2020-Jan-26 07:31 143 0 gusting 2 5.0
2020-Jan-26 07:21 218 0 gusting 8 5.0
2020-Jan-26 07:01 248 0 gusting 5 5.0
2020-Jan-26 06:51 226 0 gusting 2 5.0
2020-Jan-26 06:41 101 0 gusting 6 5.0
2020-Jan-26 06:31 238 5.0
2020-Jan-26 06:21 197 0 gusting 2 5.0
2020-Jan-26 06:11 191 5.6
2020-Jan-26 05:51 245 0 gusting 6 5.6
2020-Jan-26 05:41 242 5.6
2020-Jan-26 05:31 204 0 gusting 5 5.6
2020-Jan-26 05:21 227 0 gusting 7 6.1
2020-Jan-26 05:11 213 0 gusting 4 6.1
2020-Jan-26 05:01 095 6.1
2020-Jan-26 04:51 220 0 gusting 8 6.7
2020-Jan-26 04:41 231 6.7
2020-Jan-26 04:31 201 0 gusting 2 7.2
2020-Jan-26 04:21 251 7.2
2020-Jan-26 04:11 133 1 gusting 4 7.8
2020-Jan-26 04:01 193 0 gusting 2 7.8
2020-Jan-26 03:51 185 7.8
2020-Jan-26 03:41 194 0 gusting 2 7.8
2020-Jan-26 03:31 246 7.2
2020-Jan-26 03:21 140 6.7
2020-Jan-26 03:11 140 6.7
2020-Jan-26 03:01 140 6.7
2020-Jan-26 02:51 140 6.7
2020-Jan-26 02:41 140 6.7
2020-Jan-26 02:31 140 6.7
2020-Jan-26 02:21 140 7.2
2020-Jan-26 02:11 140 7.2
2020-Jan-26 02:01 140 7.2
2020-Jan-26 01:51 140 7.2
2020-Jan-26 01:41 140 7.2
2020-Jan-26 01:31 140 7.8
2020-Jan-26 01:21 140 7.8
2020-Jan-26 01:11 139 7.8
2020-Jan-26 01:01 139 7.8
2020-Jan-26 00:51 139 7.8
2020-Jan-26 00:41 139 8.3
2020-Jan-26 00:31 139 8.3
2020-Jan-26 00:21 146 8.3
2020-Jan-26 00:11 134 0 gusting 2 8.3
2020-Jan-26 00:01 140 1 gusting 6 8.3
2020-Jan-25 23:51 128 1 gusting 2 8.3
2020-Jan-25 23:41 188 8.3
2020-Jan-25 23:31 186 8.3
2020-Jan-25 23:21 134 0 gusting 6 8.3
2020-Jan-25 23:11 157 0 gusting 7 8.3
2020-Jan-25 23:01 219 2 gusting 8 8.9
2020-Jan-25 22:51 205 4 gusting 17 8.9
2020-Jan-25 22:41 153 8 gusting 17 8.9
2020-Jan-25 22:31 145 8 gusting 19 8.9
2020-Jan-25 22:21 140 6 gusting 15 8.9
2020-Jan-25 22:11 140 7 gusting 17 8.9
2020-Jan-25 22:01 121 7 gusting 18 8.9
2020-Jan-25 21:51 154 5 gusting 19 8.9
2020-Jan-25 21:41 136 8 gusting 19 8.9
2020-Jan-25 21:31 122 7 gusting 13 8.9
2020-Jan-25 21:21 150 7 gusting 19 8.9
2020-Jan-25 21:11 115 6 gusting 17 8.9
2020-Jan-25 21:01 108 5 gusting 12 8.9
2020-Jan-25 20:51 128 1 gusting 17 8.9
2020-Jan-25 20:41 134 5 gusting 13 8.9
2020-Jan-25 20:31 141 5 gusting 19 8.9
2020-Jan-25 20:21 124 4 gusting 17 8.9
2020-Jan-25 20:11 145 8 gusting 17 8.3
2020-Jan-25 20:01 149 2 gusting 8 7.2
2020-Jan-25 19:51 180 0 gusting 6 6.7
2020-Jan-25 19:41 098 1 gusting 5 6.7
2020-Jan-25 19:31 113 3 gusting 6 6.7
2020-Jan-25 19:21 098 2 gusting 7 6.7
2020-Jan-25 19:11 120 2 gusting 8 6.7
2020-Jan-25 19:01 151 6.1
2020-Jan-25 18:51 121 1 gusting 6 6.1
2020-Jan-25 18:41 157 1 gusting 7 6.1
2020-Jan-25 18:31 113 2 gusting 7 5.6
2020-Jan-25 18:21 151 2 gusting 10 5.6
2020-Jan-25 18:11 098 1 gusting 11 5.6
2020-Jan-25 18:01 113 1 gusting 10 5.6
2020-Jan-25 17:51 098 4 gusting 10 5.6
2020-Jan-25 17:41 058 1 gusting 6 5.6
2020-Jan-25 17:31 123 1 gusting 8 5.0
2020-Jan-25 17:21 250 1 gusting 7 5.0
2020-Jan-25 17:11 108 2 gusting 6 5.0
2020-Jan-25 17:01 107 3 gusting 7 5.0
2020-Jan-25 16:51 005 5 gusting 7 5.0
2020-Jan-25 16:41 098 1 gusting 12 5.0
2020-Jan-25 16:31 108 0 gusting 8 5.0
2020-Jan-25 14:41 246 2 gusting 8 3.9
2020-Jan-25 14:31 111 4 gusting 10 3.9
2020-Jan-25 14:21 093 3 gusting 8 3.9
2020-Jan-25 14:11 117 2 gusting 8 3.9
2020-Jan-25 14:01 125 2 gusting 7 3.9
2020-Jan-25 13:51 259 5 gusting 10 3.9
2020-Jan-25 13:41 103 1 gusting 8 3.9
2020-Jan-25 13:31 102 4 gusting 8 3.3
2020-Jan-25 13:21 114 4 gusting 10 3.3
2020-Jan-25 13:11 099 0 gusting 7 3.3
2020-Jan-25 13:01 124 1 gusting 7 3.3
2020-Jan-25 12:51 094 1 gusting 8 3.3
2020-Jan-25 12:41 098 1 gusting 6 3.3
2020-Jan-25 12:31 107 3 gusting 10 2.8
2020-Jan-25 12:21 100 4 gusting 8 2.8
2020-Jan-25 12:11 098 0 gusting 10 2.8
2020-Jan-25 12:01 169 2 gusting 8 2.8
2020-Jan-25 11:51 246 2 gusting 7 2.8
2020-Jan-25 11:41 355 2 gusting 13 2.8
2020-Jan-25 11:31 096 3 gusting 8 2.8
2020-Jan-25 11:21 105 1 gusting 8 2.2
2020-Jan-25 11:11 084 5 gusting 11 2.2
2020-Jan-25 11:01 103 1 gusting 8 2.2
2020-Jan-25 10:51 1.7
2020-Jan-25 10:41 232 0 gusting 7 1.7
2020-Jan-25 10:31 246 3 gusting 7 1.7
2020-Jan-25 10:21 127 1 gusting 6 1.1
2020-Jan-25 10:11 099 1.1
2020-Jan-25 10:01 095 0 gusting 2 1.1
2020-Jan-25 09:51 114 1 gusting 6 1.1
2020-Jan-25 09:41 100 0 gusting 4 1.1
2020-Jan-25 09:31 092 0 gusting 6 1.1
2020-Jan-25 09:21 272 1 gusting 7 1.1
2020-Jan-25 09:11 091 1 gusting 6 1.1
2020-Jan-25 09:01 019 1 gusting 6 1.1
2020-Jan-25 08:51 246 2 gusting 7 1.1
2020-Jan-25 08:41 099 1.7
2020-Jan-25 08:31 096 0 gusting 2 1.7
2020-Jan-25 08:21 103 0 gusting 2 1.7
2020-Jan-25 08:11 105 0 gusting 2 1.7
2020-Jan-25 08:01 105 1 gusting 5 1.7
2020-Jan-25 07:51 254 1.7
2020-Jan-25 07:41 110 0 gusting 6 1.1
2020-Jan-25 07:31 093 1.1
2020-Jan-25 07:21 099 1.1
2020-Jan-25 07:11 099 0 gusting 2 1.1
2020-Jan-25 07:01 248 1.1
2020-Jan-25 06:51 250 0 gusting 1 1.7
2020-Jan-25 06:41 253 0 gusting 1 1.7
2020-Jan-25 06:31 1.7
2020-Jan-25 06:21 109 1.7
2020-Jan-25 06:11 107 1.7
2020-Jan-25 06:01 120 1.7
2020-Jan-25 05:51 098 0 gusting 1 1.7
2020-Jan-25 05:41 099 0 gusting 5 1.7
2020-Jan-25 05:31 102 1.7
2020-Jan-25 05:21 011 0 gusting 5 1.7
2020-Jan-25 05:11 107 0 gusting 2 2.2
2020-Jan-25 05:01 091 0 gusting 5 2.2
2020-Jan-25 04:51 094 0 gusting 5 2.2
2020-Jan-25 04:41 099 1 gusting 4 2.2
2020-Jan-25 04:31 248 0 gusting 2 2.2
2020-Jan-25 04:21 2.2
2020-Jan-25 04:11 277 0 gusting 2 2.2
2020-Jan-25 04:01 099 0 gusting 2 2.2
2020-Jan-25 03:51 247 0 gusting 5 1.7
2020-Jan-25 03:41 246 0 gusting 7 1.7
2020-Jan-25 03:31 248 0 gusting 2 1.1
2020-Jan-25 03:21 099 1.1
2020-Jan-25 03:11 099 0.6
2020-Jan-25 03:01 098 -0.0
2020-Jan-25 02:51 248 0 gusting 2 -0.6
2020-Jan-25 02:41 246 0 gusting 1 -1.1
2020-Jan-25 02:31 246 -1.1
2020-Jan-25 02:21 249 -1.1
2020-Jan-25 02:11 246 -0.6
2020-Jan-25 02:01 246 -0.6
2020-Jan-25 01:51 246 -0.6
2020-Jan-25 01:41 246 -0.6
2020-Jan-25 01:31 246 -0.0
2020-Jan-25 01:21 246 -0.0
2020-Jan-25 01:11 246 -0.0
2020-Jan-25 01:01 254 0.6
2020-Jan-25 00:51 254 0.6
2020-Jan-25 00:41 254 0.6
2020-Jan-25 00:31 254 1.1
2020-Jan-25 00:21 254 1.1
2020-Jan-25 00:11 254 1.7
2020-Jan-25 00:01 254 1.7
2020-Jan-24 23:51 103 0 gusting 2 2.2
2020-Jan-24 23:41 163 2.2
2020-Jan-24 23:31 163 2.2
2020-Jan-24 23:21 163 2.8
2020-Jan-24 23:11 210 2.8
2020-Jan-24 23:01 234 3.3
2020-Jan-24 22:51 234 3.3
2020-Jan-24 22:41 234 3.9
2020-Jan-24 22:31 163 4.4
2020-Jan-24 22:21 163 5.0
2020-Jan-24 22:11 163 5.6
2020-Jan-24 22:01 163 6.1
2020-Jan-24 21:51 163 6.7
2020-Jan-24 21:41 163 7.2
2020-Jan-24 21:31 163 7.8
2020-Jan-24 21:21 163 7.8
2020-Jan-24 21:11 161 0 gusting 1 8.3
2020-Jan-24 21:01 152 8.9
2020-Jan-24 20:51 152 0 gusting 2 9.4
2020-Jan-24 20:41 140 9.4
2020-Jan-24 20:31 164 10.0
2020-Jan-24 20:21 126 10.0
2020-Jan-24 20:11 108 10.0
2020-Jan-24 20:01 104 0 gusting 2 10.0